Regional Weather Roundup
Issued by NWS

Home | Current Version | Previous Version | Graphics & Text | Print | Product List | Glossary On
Versions: 1 2 3 4 5 6 7 8 9 10 11 12 13 14 15 16 17 18 19 20 21 22 23 24 25 26 27 28 29 30 31 32 33 34 35 36 37 38 39 40 41 42 43 44 45 46 47 48 49 50
000
ASUS43 KBIS 042310
RWRND

NORTH DAKOTA REGIONAL WEATHER ROUNDUP
NATIONAL WEATHER SERVICE BISMARCK ND
600 PM CDT TUE AUG 04 2015

NOTE: "FAIR" INDICATES FEW OR NO CLOUDS BELOW 12,000 FEET WITH NO
SIGNIFICANT WEATHER AND/OR OBSTRUCTIONS TO VISIBILITY.


NDZ001>003-009>011-017-050000-
NORTHWEST NORTH DAKOTA

CITY           SKY/WX    TMP DP  RH WIND       PRES   REMARKS
WILLISTON      SUNNY     90  53  28 SE13      29.88F
MINOT          MOSUNNY   82  48  30 E12       29.95S
MINOT AFB      MOSUNNY   83  49  30 E14       29.94F
$$

NDZ018>021-031>035-040>046-050000-
SOUTHWEST NORTH DAKOTA

CITY           SKY/WX    TMP DP  RH WIND       PRES   REMARKS
BISMARCK       SUNNY     86  55  34 SE8       29.94F
DICKINSON      MOSUNNY   84  56  38 SE15      29.92F
GARRISON         N/A     82  57  42 E12       29.94F
HETTINGER ARPT PTSUNNY   86  52  30 SE16G23   29.94F
$$

NDZ004>008-012>016-024-026-027-054-050000-
NORTHEAST NORTH DAKOTA

CITY           SKY/WX    TMP DP  RH WIND       PRES   REMARKS
GRAND FORKS    SUNNY     76  53  44 N6        30.00R
GRND FRKS AFB  SUNNY     76  54  46 N5        30.01R
DEVILS LAKE    SUNNY     77  50  38 SE6       30.00S
$$

NDZ022-023-025-028>030-036>039-047>053-050000-
SOUTHEAST NORTH DAKOTA

CITY           SKY/WX    TMP DP  RH WIND       PRES   REMARKS
FARGO          MOSUNNY   80  51  36 NE6       29.99S
JAMESTOWN      SUNNY     78  52  40 SE6       29.99S
$$




USA.gov is the U.S. government's official web portal to all federal, state and local government web resources and services.